Wind_Speed
22 21 21 24 23 20 18 18 20 22 23 23 22 22 20 18 16 15 17 18 18 19 19 20 20 21 22 23 23 23 22 21 20 19 18 18 17 15 14 13 12 13 13 13 12 11 10 9 10 10 10 10 10 10 9 9 8 7 7 7 6 7 7 7 9 11 11 12 12 12 13 13 14 14 15 14 14 14 14 14 14 13 13 13 14
22 21 21 24 23 20 18 18 18 20 23 23 22 22 21 19 17 17 18 18 18 19 20 20 21 22 23 23 23 22 22 21 20 20 20 18 17 15 14 14 14 14 14 14 14 13 11 10 10 10 10 10 10 10 10 10 9 9 8 8 8 9 9 8 10 13 13 13 14 14 15 16 16 17 17 17 16 16 15 15 15 15 15 16 16
21 21 22 24 24 22 18 18 19 19 22 25 24 23 24 22 19 19 19 18 17 19 20 21 21 22 22 23 22 22 22 21 21 21 20 19 17 16 15 15 15 15 15 15 15 15 14 13 13 12 12 11 11 12 12 12 11 11 10 10 11 12 11 10 12 15 15 15 16 17 18 19 19 19 19 19 18 18 17 17 17 17 17 18 18
20 22 25 25 24 24 21 19 20 20 22 24 24 24 25 24 22 20 19 18 19 21 21 22 22 22 22 22 22 21 20 20 20 21 20 19 18 17 16 16 16 16 16 17 17 17 17 16 16 15 15 14 14 15 15 14 14 14 12 12 14 15 13 12 14 16 17 17 18 19 20 21 21 21 21 20 20 19 19 19 19 19 20 20 21
21 24 27 27 27 26 23 20 21 21 21 23 24 24 25 25 24 22 20 20 21 23 23 22 22 21 21 21 21 20 19 19 19 19 19 19 18 18 18 18 18 18 18 18 18 18 19 19 18 18 17 17 17 18 18 17 17 17 15 15 16 17 16 15 16 16 18 20 20 20 22 22 23 23 23 22 22 22 21 21 22 22 22 22 24
24 26 29 29 28 26 23 21 22 22 21 22 24 25 26 26 25 24 22 21 23 24 23 22 21 21 21 21 21 21 20 20 20 20 20 20 20 19 19 19 19 19 20 20 20 20 20 20 21 20 19 19 20 20 19 19 18 18 18 18 19 19 19 19 18 17 18 21 23 23 24 25 25 25 25 24 24 24 24 24 24 24 24 25 26
28 29 30 30 28 27 25 24 24 23 21 22 25 26 27 27 27 26 23 22 24 25 24 23 22 21 22 22 21 21 21 21 22 22 22 22 21 21 20 20 20 20 20 21 21 21 20 21 22 22 22 21 21 21 20 20 19 20 21 21 20 20 21 21 20 19 20 22 24 25 26 26 27 27 27 27 26 27 26 26 26 26 26 26 27
31 32 31 30 29 27 27 27 27 24 22 23 25 27 28 29 30 27 24 24 26 25 25 25 24 23 22 21 20 20 21 21 21 21 21 21 21 19 19 19 19 20 20 21 22 21 21 21 23 23 23 23 23 22 22 21 20 21 22 22 20 19 21 23 22 22 22 23 25 26 27 28 29 29 29 29 29 29 29 28 29 29 29 28 28
35 34 32 29 28 29 29 29 28 25 23 23 25 28 30 31 30 27 26 27 28 26 25 26 25 23 21 19 20 20 20 20 20 20 20 19 18 18 17 18 19 20 21 22 23 23 22 23 24 24 25 24 24 24 24 23 21 21 22 22 20 20 22 23 24 24 25 25 26 27 28 29 30 31 31 31 31 31 31 31 30 31 31 31 30
36 34 31 28 28 29 30 28 27 26 24 23 25 27 29 30 28 28 29 29 27 25 25 25 24 22 20 20 22 21 20 19 19 19 19 19 18 18 18 19 19 21 22 23 25 25 24 24 24 24 25 25 25 25 24 23 22 22 22 22 21 21 22 24 24 25 26 27 27 28 29 30 30 31 32 32 33 33 33 33 32 33 33 34 33
32 32 29 27 27 28 29 28 27 26 25 25 26 25 26 27 27 27 27 25 24 24 24 22 21 21 22 23 23 22 21 21 20 20 20 20 21 21 21 21 21 21 22 23 24 25 25 25 24 24 25 25 24 24 24 23 23 22 23 23 23 23 23 25 25 26 26 27 28 29 30 31 31 32 32 33 35 36 36 36 36 36 36 36 36
28 28 26 25 25 26 29 29 28 27 25 26 27 26 25 25 24 23 22 22 23 23 22 21 21 23 24 24 24 23 23 23 23 23 23 24 24 24 24 24 24 23 22 22 23 23 24 25 25 25 25 25 24 24 24 24 24 24 24 25 24 24 25 26 26 27 27 28 29 30 31 32 33 34 34 35 36 37 38 38 39 40 40 39 39
23 23 22 23 24 26 27 29 29 27 24 24 26 26 24 23 22 21 21 21 22 22 21 22 23 23 24 24 25 25 24 24 24 25 26 26 26 25 26 26 26 24 22 22 21 21 22 24 25 25 25 25 25 25 25 25 25 25 25 26 26 27 27 27 28 28 29 30 31 32 32 33 34 35 36 38 39 39 39 40 41 42 43 42 42
21 20 20 20 23 24 25 27 27 25 24 24 24 23 22 22 22 21 21 21 22 22 23 23 23 23 24 24 25 25 25 25 25 25 26 26 26 26 27 27 27 25 23 22 21 21 22 23 24 24 24 25 25 25 26 26 26 26 26 27 28 28 29 29 29 30 31 31 32 33 34 35 36 37 38 39 40 41 42 43 43 44 45 44 44
20 20 20 21 23 24 25 25 24 24 25 25 23 22 24 24 23 23 22 21 23 24 25 25 25 24 23 23 24 25 25 25 25 26 27 28 29 29 27 26 26 25 24 24 23 23 23 23 23 22 22 24 25 25 26 27 27 28 28 28 29 30 31 31 32 33 34 33 33 33 34 35 36 38 39 40 41 42 43 44 45 45 46 46 47
21 22 23 24 25 25 25 25 25 24 24 25 25 25 25 26 25 23 23 23 24 26 27 28 27 26 25 25 26 27 27 28 28 27 27 28 29 28 26 24 23 24 25 26 26 25 24 24 23 22 22 24 25 26 27 28 29 29 30 31 32 32 33 34 35 35 35 33 33 33 35 36 38 39 41 42 43 43 44 45 46 47 48 49 49
23 26 26 26 27 26 25 25 26 26 24 25 26 26 26 27 26 23 24 25 26 26 27 28 29 28 28 29 29 29 29 28 27 26 26 26 26 25 24 23 22 23 25 26 27 27 26 26 25 25 25 25 26 27 29 30 31 32 33 34 35 36 37 37 37 36 35 34 35 36 38 40 41 43 44 45 46 47 47 48 49 50 50 50 50
22 26 28 28 28 27 26 25 25 25 25 26 27 26 27 28 27 25 27 28 27 27 28 29 30 31 31 30 29 28 26 25 25 24 24 25 25 24 23 22 22 23 25 26 26 27 27 28 28 28 28 28 28 29 31 32 34 34 35 36 37 38 39 39 39 38 38 38 39 41 42 44 45 46 47 48 49 50 51 52 53 54 55 54 53
18 21 26 28 27 26 26 26 26 27 27 28 28 27 28 29 29 30 31 30 28 28 28 29 30 30 29 27 26 25 24 23 23 24 24 24 25 24 24 23 24 25 26 26 26 27 28 29 29 30 31 30 31 32 33 34 35 36 37 38 39 40 40 41 41 41 42 42 43 44 45 46 48 48 50 51 52 53 54 54 54 56 58 58 57
15 16 19 24 27 27 27 27 27 29 30 30 30 30 30 31 32 33 33 31 29 27 27 28 28 27 25 24 23 23 23 23 24 24 24 25 24 25 25 25 26 27 27 27 27 27 28 30 31 32 32 33 34 34 35 36 37 38 39 40 41 41 42 43 44 44 45 46 47 48 49 50 51 52 54 55 56 57 58 58 58 59 61 60 59
19 18 17 19 23 26 28 29 30 31 31 32 33 33 33 35 35 34 33 32 29 26 25 25 25 24 23 23 24 24 24 25 25 26 26 26 26 26 27 27 28 29 29 30 30 28 28 30 32 33 34 36 36 37 37 38 39 40 41 42 43 45 46 47 48 49 50 51 52 53 54 55 56 57 58 59 60 60 61 62 63 63 62 62 62
21 20 19 20 22 24 26 28 31 32 32 32 32 34 35 36 36 35 32 30 26 24 24 24 24 25 24 25 25 26 26 27 27 28 28 29 29 29 30 30 31 32 31 32 33 31 30 31 34 34 35 37 38 39 40 41 42 43 45 47 48 50 51 52 53 54 55 55 56 56 57 58 59 59 61 62 62 63 63 64 64 64 64 63 63
21 19 18 19 21 23 24 25 27 29 30 31 33 34 34 34 33 32 29 27 25 25 25 26 27 28 28 28 28 28 29 30 30 30 31 32 33 33 33 33 34 34 34 34 35 34 33 34 36 37 37 38 39 41 43 45 47 49 50 52 53 53 54 55 55 56 56 57 58 58 59 60 61 62 63 64 65 66 67 67 67 67 67 66 65
20 20 20 20 21 23 24 26 27 28 28 30 31 32 31 30 29 29 28 28 27 28 28 29 29 30 31 31 30 30 30 31 31 32 33 34 34 35 35 35 35 35 35 35 36 36 36 37 38 40 41 42 44 46 48 49 50 51 52 53 54 54 55 55 56 57 58 59 59 60 61 63 64 66 67 69 69 70 71 71 71 72 72 71 70
22 22 23 23 23 23 24 26 30 31 32 31 32 32 31 29 29 29 30 30 30 31 31 31 31 32 33 33 32 32 32 32 32 33 34 35 36 37 37 37 37 36 36 37 38 38 39 40 42 43 45 46 47 48 49 50 51 51 53 53 54 55 56 57 58 60 61 62 63 64 66 67 68 70 71 72 72 73 73 74 74 74 73 73 72
23 22 22 22 23 24 25 26 29 33 35 35 35 34 33 31 31 31 31 32 32 32 32 31 32 32 32 33 33 33 32 33 35 36 37 37 38 38 38 38 38 38 39 39 41 42 43 44 45 46 46 47 47 48 49 51 52 53 55 56 58 59 60 61 63 64 66 67 68 69 71 72 72 73 74 74 74 74 74 74 73 72 71 71 71
22 21 21 22 24 26 27 28 29 31 34 35 35 35 34 34 34 34 33 33 33 33 33 33 33 33 33 34 35 34 34 35 37 38 39 39 40 40 40 40 40 40 41 41 42 43 44 45 45 46 47 48 49 51 52 54 56 57 59 61 62 64 65 66 68 69 70 71 72 73 73 74 74 74 74 74 74 73 73 72 70 69 68 68 67
24 22 21 24 28 29 30 30 30 31 33 34 35 35 35 35 34 35 35 34 34 34 35 35 35 35 35 36 36 35 36 37 38 38 39 39 39 39 40 40 40 41 41 42 42 43 44 45 46 48 49 51 53 54 56 58 59 61 62 64 66 67 68 69 70 71 72 72 73 73 73 73 72 71 70 70 70 69 69 67 65 64 64 62 61
27 25 25 27 32 34 34 34 33 33 33 33 32 32 32 33 33 34 35 35 36 36 36 36 36 36 36 37 36 36 37 38 39 39 39 38 38 38 38 38 39 40 41 42 43 44 46 48 49 51 53 54 55 57 59 60 62 63 64 66 67 69 70 71 72 72 73 72 72 72 72 70 69 68 67 67 66 65 64 63 61 60 59 57 56
31 31 31 32 35 38 39 38 37 36 36 35 33 32 32 33 34 35 36 36 37 37 37 37 37 37 38 38 38 38 39 39 38 38 37 37 37 37 38 39 40 41 42 44 45 47 49 50 52 53 55 56 57 59 60 62 63 64 65 67 68 69 71 71 72 72 71 71 70 69 69 68 67 65 64 62 60 59 58 57 56 55 54 53 53
35 36 36 37 38 40 41 40 39 38 38 37 36 35 35 36 37 38 38 38 38 38 38 38 37 37 37 37 37 37 37 37 36 36 37 37 38 39 40 41 43 44 46 47 48 49 51 52 54 55 56 58 59 60 62 63 64 66 67 69 70 70 71 71 70 70 69 68 66 65 64 63 61 60 58 56 55 53 53 53 53 53 52 51 51
36 37 39 40 42 43 43 44 43 43 42 42 41 41 41 41 41 41 41 40 39 38 38 37 36 36 36 35 35 36 36 36 37 37 38 39 40 42 43 44 45 47 48 49 50 51 53 54 56 57 58 60 61 63 64 66 67 68 68 69 69 68 68 67 66 65 64 62 61 59 57 56 54 53 52 51 51 51 52 52 53 54 54 53 52
35 36 37 39 41 42 44 45 46 47 47 47 47 46 44 43 42 41 40 40 39 38 37 36 36 36 36 37 37 38 38 39 39 40 41 42 43 44 45 46 47 48 49 51 52 54 55 57 58 59 61 62 63 64 65 66 67 67 66 66 65 64 63 62 60 59 57 56 54 53 52 51 50 49 49 50 51 52 53 53 54 55 55 55 54
37 37 37 38 38 38 39 40 41 42 43 44 44 43 42 40 39 38 38 37 37 37 37 37 38 39 39 40 40 41 41 42 42 43 44 44 45 46 47 48 50 51 52 53 55 56 57 58 59 60 61 62 62 63 63 63 62 62 61 60 60 59 58 57 56 55 54 52 50 49 49 48 48 48 49 50 52 53 53 54 55 54 54 54 53
37 37 37 37 37 37 37 37 38 38 38 38 38 39 38 38 37 37 37 38 38 38 39 39 40 41 41 42 42 43 43 44 44 45 45 46 47 48 49 50 51 52 53 54 55 55 56 57 57 58 58 58 58 58 57 57 57 56 56 56 55 55 54 53 52 51 50 48 47 47 47 48 49 49 50 50 51 52 53 53 53 52 52 51 50
36 36 36 36 36 36 36 37 37 37 37 37 37 37 37 38 38 38 39 40 41 41 41 42 42 42 43 43 43 43 44 44 45 45 46 46 47 48 48 49 50 51 51 52 53 53 53 53 54 54 54 54 54 54 53 54 54 53 53 53 52 51 50 49 48 47 46 46 46 46 46 48 49 49 49 50 50 50 50 50 50 51 51 51 50
38 38 39 39 39 39 39 39 39 39 39 40 40 40 40 40 40 41 41 42 42 42 42 42 42 42 42 42 42 42 43 43 44 45 45 46 46 47 48 49 49 50 50 51 51 51 51 51 51 51 51 51 51 51 52 52 52 51 50 49 48 47 46 46 45 45 45 45 45 46 46 47 48 48 48 47 46 46 46 47 47 48 48 47 46
41 42 42 42 42 42 42 42 42 42 42 43 43 43 43 42 42 42 42 42 42 41 41 41 41 41 41 41 41 42 42 43 44 44 45 45 46 46 47 47 48 48 48 48 47 47 47 47 47 48 49 49 50 50 49 49 48 47 46 45 45 44 44 45 45 45 45 46 46 47 47 46 46 46 43 41 41 41 41 42 42 42 40 38 37
43 43 43 42 42 41 41 42 42 42 42 42 42 42 42 41 41 40 40 40 40 40 39 39 39 40 40 41 41 41 42 42 43 43 43 43 43 43 44 44 43 43 43 43 43 43 44 45 46 47 47 47 46 46 45 44 44 43 44 44 44 44 45 45 46 46 46 47 47 46 46 45 43 40 37 36 37 37 37 37 37 34 31 29 28
43 43 43 42 42 41 40 40 40 40 40 41 40 40 40 39 39 38 38 38 38 38 38 38 39 39 39 39 40 40 40 40 40 40 40 40 40 40 40 39 39 40 40 41 42 42 43 44 44 44 44 43 42 42 42 42 42 43 44 44 45 46 47 47 46 46 45 45 44 43 42 40 38 34 32 32 33 33 33 33 31 27 23 22 22
44 44 43 42 42 41 40 39 38 37 37 38 38 38 38 38 37 37 37 36 36 36 36 36 37 37 37 37 37 37 36 36 37 37 37 37 37 37 37 37 38 39 39 40 40 41 41 41 40 40 40 40 40 40 41 42 44 45 45 46 46 46 45 44 43 42 41 40 39 39 37 34 32 30 30 31 31 30 28 27 24 20 17 16 16
45 44 43 43 42 41 40 39 37 36 36 36 36 36 36 36 36 35 35 35 35 34 34 34 35 35 34 34 34 34 34 34 34 34 34 35 35 35 36 36 37 37 37 37 37 37 37 37 37 38 38 40 41 42 43 44 45 45 44 43 42 40 40 39 39 38 38 37 36 34 31 29 28 29 29 29 29 27 25 22 18 14 11 9 9
43 43 42 42 42 41 40 39 38 38 37 37 36 36 35 35 35 34 34 34 34 33 33 33 33 33 33 33 33 34 34 34 34 34 34 35 35 35 35 35 34 34 34 34 34 34 35 36 37 38 40 41 43 43 43 43 41 39 38 37 36 36 37 37 37 37 36 34 31 28 27 27 27 28 28 28 27 24 22 19 16 12 8 7 7
38 39 39 39 39 40 39 39 39 39 38 38 37 37 36 35 35 34 34 34 33 33 33 33 33 33 33 33 34 34 34 34 34 34 34 33 33 32 32 32 31 32 32 32 33 34 36 37 39 40 41 42 41 40 39 37 35 33 32 33 34 35 36 37 36 34 31 27 25 24 25 26 25 25 26 26 24 22 20 17 14 12 10 8 8
33 35 35 36 36 37 37 37 38 38 38 37 37 37 37 36 35 35 34 34 34 34 34 34 34 34 34 34 34 34 34 33 33 32 31 30 29 29 29 29 30 31 32 33 34 36 37 39 40 40 40 38 37 35 33 31 30 30 31 32 33 35 35 34 33 29 25 22 21 23 24 24 22 22 22 22 21 19 18 16 13 12 11 10 10
31 33 34 34 35 35 35 35 36 37 37 37 37 36 36 36 35 35 34 34 34 34 34 33 33 33 33 33 32 31 30 29 28 27 26 26 27 27 28 29 30 31 33 34 36 37 39 39 38 36 35 33 32 31 29 28 28 29 30 32 32 32 31 30 27 23 20 19 20 22 23 22 20 20 20 20 19 18 17 16 14 13 13 12 12
29 31 33 33 33 34 34 35 35 35 35 35 35 35 35 34 34 33 33 33 32 32 32 32 31 31 30 29 28 26 25 24 24 24 24 25 26 27 28 29 30 31 33 36 37 37 37 35 33 32 31 30 29 28 27 26 26 28 29 29 29 28 27 25 22 20 18 19 20 21 21 21 20 20 20 19 18 16 15 14 15 15 15 15 14
27 28 30 31 31 32 32 33 33 33 33 33 33 33 33 32 32 31 31 31 30 30 29 28 27 26 25 23 22 22 22 22 23 23 24 25 26 27 28 29 30 32 34 36 36 34 32 30 29 29 28 28 27 26 25 24 25 26 26 25 24 24 23 22 20 19 17 18 19 20 20 20 20 20 19 17 15 14 12 13 14 15 15 16 16
25 26 28 29 29 29 30 30 30 30 30 30 30 30 30 30 29 28 28 27 26 25 24 24 23 22 21 20 21 21 22 22 23 24 24 25 26 27 28 29 31 33 34 34 32 29 28 27 27 26 26 25 25 24 23 23 23 23 23 22 21 21 21 21 20 18 17 17 18 19 20 19 20 19 18 16 15 13 11 11 12 13 14 15 15
25 26 27 27 27 27 28 28 28 28 28 27 27 27 27 26 26 25 24 23 22 21 21 21 21 20 20 21 21 22 22 23 23 24 24 25 26 26 28 29 31 32 32 30 28 26 26 25 25 24 23 23 22 22 21 21 22 22 21 19 19 20 21 21 19 18 17 17 18 19 18 18 18 19 18 16 14 12 11 10 10 11 11 12 11
25 25 26 26 26 26 26 26 26 26 26 25 25 25 24 24 23 22 21 21 20 20 21 21 21 21 21 22 22 23 23 23 24 24 25 25 26 26 27 29 30 31 30 27 26 25 24 23 23 22 22 22 21 21 20 20 21 20 19 18 19 20 21 20 19 18 17 17 17 17 16 16 16 17 17 16 14 12 11 10 9 9 8 8 8
Wind_Direction
268 262 256 254 258 270 280 274 259 246 235 236 241 243 246 251 252 247 243 244 246 246 244 239 236 235 237 239 240 241 242 243 243 242 240 237 236 238 240 243 245 246 247 249 251 252 251 249 243 234 233 239 245 247 243 238 243 250 257 269 279 281 285 288 286 288 292 294 296 298 299 299 297 296 295 296 297 299 300 300 299 299 300 300 301
268 264 256 254 255 260 270 273 266 250 238 242 248 246 243 243 246 245 239 238 241 242 242 239 235 236 237 239 241 241 241 241 241 240 237 233 233 236 240 243 244 245 245 245 247 249 249 248 245 237 233 238 245 253 254 248 249 256 263 275 283 284 290 293 285 284 288 291 292 293 293 293 293 292 292 293 293 294 295 295 295 295 296 298 299
273 265 259 259 254 252 261 267 265 259 251 251 253 250 242 238 244 244 234 232 238 240 240 238 237 237 238 240 241 241 241 240 239 237 233 231 231 233 238 242 244 245 244 243 243 245 246 246 247 246 243 243 246 255 261 259 259 263 269 276 278 281 288 288 281 284 288 288 287 288 289 289 289 288 288 288 289 289 290 291 291 292 293 295 296
274 265 262 264 258 253 257 261 261 261 257 253 254 252 241 236 243 241 227 227 239 243 241 238 237 237 236 238 241 241 241 239 237 235 234 233 233 234 236 239 242 244 243 242 241 242 244 245 246 248 249 248 250 256 261 265 268 270 272 274 276 281 285 280 277 281 285 285 285 286 287 286 286 286 286 285 286 286 287 287 287 288 290 292 294
269 262 260 262 257 252 255 259 257 258 259 255 253 251 242 236 240 236 224 227 239 243 242 238 237 236 234 236 239 240 239 237 237 237 237 238 238 238 239 240 241 243 242 242 241 242 245 247 248 249 251 253 255 258 262 266 270 273 276 276 278 283 284 279 277 280 283 285 286 285 284 284 284 284 284 284 284 284 284 284 284 286 287 290 292
260 257 257 255 250 248 253 257 255 254 257 254 252 252 244 237 237 232 223 228 237 239 239 238 236 235 232 232 236 238 239 239 239 240 241 242 242 242 243 243 244 244 244 245 244 244 246 250 253 253 253 254 256 258 261 264 268 273 275 275 277 281 281 279 279 280 281 284 286 285 284 284 284 284 283 283 282 282 281 282 282 284 286 289 291
254 256 256 247 240 244 250 253 253 253 255 255 254 253 247 237 233 230 224 227 235 238 237 236 236 233 229 230 235 239 241 241 241 242 243 244 244 244 245 246 247 247 248 249 249 248 249 252 256 258 258 259 260 262 263 261 263 267 271 273 275 277 279 280 281 280 278 280 284 286 286 285 285 284 283 282 281 281 282 282 283 284 287 289 291
258 258 247 235 235 242 247 250 251 252 254 256 255 255 250 238 230 228 226 227 233 236 235 236 236 232 228 230 235 238 239 240 241 241 242 243 243 244 244 245 247 248 250 252 253 253 252 253 256 259 261 262 263 265 265 264 266 268 272 275 275 272 274 279 282 283 283 283 285 287 288 287 285 284 283 281 281 281 281 282 283 284 287 290 292
266 254 235 231 237 240 242 246 249 252 256 258 259 257 248 233 225 226 226 227 233 237 237 237 237 233 229 231 235 237 239 240 241 241 240 240 241 243 245 248 250 253 254 255 256 256 256 255 257 260 263 264 264 264 266 268 271 272 273 277 277 273 273 277 282 285 289 290 290 289 289 288 286 285 284 283 281 281 281 282 283 285 288 291 292
263 242 229 235 239 237 240 242 245 252 258 258 260 254 238 224 222 223 224 228 236 239 238 238 237 235 233 234 235 237 240 241 241 241 241 242 244 246 249 252 256 258 258 258 259 258 258 258 260 262 264 266 267 267 268 271 273 274 274 277 279 278 276 278 281 284 287 290 292 291 290 289 288 286 284 284 283 282 282 283 283 286 289 291 292
248 226 222 228 229 232 238 241 245 252 255 256 253 242 226 217 217 220 225 233 239 239 238 238 236 234 234 235 237 240 241 241 241 242 244 247 250 252 253 255 258 260 261 260 260 260 259 259 260 261 263 265 267 268 270 272 274 275 274 275 277 277 278 279 281 283 286 288 289 290 290 289 288 286 285 284 283 283 283 284 285 287 289 290 291
231 222 224 224 225 229 233 240 246 248 252 254 243 227 216 212 215 224 233 238 239 238 238 235 233 235 237 239 243 245 244 243 242 243 245 249 253 255 257 258 259 261 261 261 261 262 262 263 263 264 264 265 266 267 270 272 274 274 274 275 276 277 279 280 282 284 286 287 287 288 288 287 287 287 286 284 284 284 285 286 287 288 288 289 289
226 229 230 224 225 228 232 241 245 243 246 244 229 218 215 215 222 234 239 239 238 237 236 235 236 238 241 244 245 246 245 244 243 243 246 249 252 255 257 259 259 259 260 260 261 262 263 265 267 268 267 266 267 267 269 270 271 271 271 273 275 278 279 281 283 286 287 288 288 287 287 287 286 286 285 285 285 286 286 287 287 288 288 289 289
230 230 230 227 227 229 234 240 240 236 235 231 222 220 222 224 231 237 238 239 238 235 235 236 237 240 243 245 246 246 245 244 243 244 245 246 250 254 257 258 256 255 255 257 257 258 260 261 262 263 265 266 267 267 267 268 268 268 269 271 275 278 281 284 285 287 287 287 286 286 286 286 287 286 286 286 287 287 287 287 286 286 287 287 287
231 232 233 233 233 235 236 236 233 229 227 224 222 222 225 233 239 238 235 235 234 235 236 237 240 244 246 247 247 248 247 246 246 246 246 248 253 256 257 255 251 248 250 253 253 254 257 259 260 261 263 265 266 266 267 268 269 270 273 276 279 282 284 285 284 284 283 282 282 283 285 286 287 287 287 287 286 286 286 286 285 286 287 286 286
232 239 243 240 237 236 235 232 229 226 223 222 223 222 227 237 241 238 234 234 236 238 239 240 243 246 247 249 252 252 252 251 250 249 249 251 253 252 251 248 245 244 247 251 253 255 257 259 260 262 263 264 266 268 269 271 273 275 277 279 281 282 281 280 280 280 280 280 282 284 285 286 286 287 287 286 286 286 286 285 286 288 289 288 285
223 227 233 239 239 234 231 229 226 223 221 220 222 225 229 236 241 240 238 240 243 245 244 244 246 247 248 251 253 253 253 251 249 248 248 249 249 247 246 246 246 247 250 253 255 257 259 261 263 264 266 269 270 271 273 274 275 277 278 279 280 280 279 280 281 281 281 282 284 286 286 286 286 286 286 286 286 286 286 286 286 288 288 286 284
218 216 214 221 231 230 227 227 224 223 223 222 223 227 231 236 243 245 243 243 244 245 245 246 246 247 249 250 250 250 250 249 249 248 247 248 249 248 248 249 251 253 254 256 259 260 262 265 267 269 271 274 274 274 275 276 277 278 279 280 281 281 282 284 285 284 284 285 286 287 287 287 287 286 286 286 286 286 286 287 287 287 286 286 286
228 223 211 211 221 225 223 223 222 223 224 223 224 229 234 239 244 244 241 240 239 241 244 245 245 246 247 248 249 248 247 248 250 251 250 249 249 250 250 251 254 256 257 259 260 262 265 268 270 273 275 276 276 276 276 277 279 280 281 282 283 284 285 286 286 287 287 287 287 287 287 287 286 287 286 286 286 286 286 287 288 288 288 289 290
250 244 226 217 220 222 222 223 225 225 226 227 227 230 236 240 239 235 234 239 244 246 244 243 243 244 244 246 246 247 249 251 252 253 252 251 251 251 253 254 257 259 259 260 260 261 265 269 272 274 276 276 276 276 278 279 281 282 284 285 285 286 287 287 287 288 288 288 287 287 286 286 285 286 285 285 285 285 285 286 285 284 285 287 288
266 264 254 239 231 227 224 222 224 227 229 230 231 231 235 239 238 235 238 244 247 244 240 239 241 242 243 246 248 250 252 254 255 256 255 253 252 254 256 257 259 259 260 261 262 262 265 270 273 273 274 276 277 278 280 282 283 284 285 286 286 287 287 288 288 288 288 287 286 286 285 284 284 284 284 283 283 284 284 284 283 283 283 283 283
261 259 258 254 248 243 235 227 226 230 233 233 233 232 232 235 237 239 243 243 237 236 240 244 247 249 250 252 253 254 255 256 259 261 260 258 257 257 258 258 258 259 261 263 265 266 267 270 273 274 274 276 278 281 283 284 285 285 286 287 287 287 288 287 287 287 286 286 285 284 284 284 283 283 283 282 282 282 282 282 282 282 281 281 280
260 258 258 258 258 257 252 245 239 238 237 234 232 230 228 230 234 237 240 238 234 236 242 248 252 256 258 259 258 258 257 258 259 259 259 260 261 260 261 261 261 262 264 265 268 269 270 271 273 275 276 278 280 281 282 284 285 286 287 287 287 287 286 286 286 285 285 285 285 285 285 284 284 284 283 283 282 282 282 282 282 281 281 280 280
260 258 261 264 265 263 260 256 252 248 243 237 232 230 229 231 236 240 243 245 247 248 250 252 254 256 258 262 263 261 260 260 260 258 259 260 262 262 263 263 264 265 266 267 269 271 271 272 274 277 279 281 282 283 284 284 285 285 286 285 285 285 285 285 285 285 285 285 285 285 284 284 284 284 284 283 283 283 282 282 281 281 281 281 281
255 255 260 267 270 270 269 264 259 254 252 248 243 240 240 241 244 247 250 253 255 255 256 256 255 255 258 261 263 262 263 263 261 260 260 261 262 263 263 263 264 265 266 268 269 271 274 276 278 279 281 282 283 284 284 285 285 285 285 284 284 284 284 285 285 285 285 285 285 285 285 285 285 285 284 284 283 283 282 282 281 281 281 281 281
255 257 261 265 268 269 270 268 263 258 256 255 252 251 250 250 252 253 255 256 257 257 257 257 257 258 259 260 260 260 261 260 260 260 261 261 262 263 263 264 265 266 268 270 272 275 278 279 280 281 282 283 283 284 284 285 285 285 285 285 285 285 285 285 285 285 285 286 286 285 285 285 285 284 284 284 284 283 283 283 283 282 282 282 281
257 257 257 258 260 261 261 261 261 259 258 258 257 256 255 255 255 256 256 256 256 257 258 258 258 259 260 260 260 259 258 257 259 261 262 262 262 262 262 263 265 268 270 273 275 278 279 280 281 282 283 283 284 284 284 284 284 284 284 284 285 285 285 285 285 285 285 285 285 284 284 285 285 285 285 285 285 285 284 284 284 283 283 282 282
263 258 252 250 250 250 251 250 251 251 252 254 256 256 256 255 255 256 255 254 253 254 255 257 258 259 259 259 259 258 257 256 257 259 260 260 261 263 264 266 269 271 274 275 277 279 280 281 282 283 283 284 284 284 284 284 284 284 284 284 284 284 284 284 284 283 283 284 284 284 284 285 286 286 286 286 286 286 286 286 285 284 284 283 282
259 258 254 248 245 243 243 242 240 239 240 244 248 251 254 256 258 257 256 254 253 253 253 254 254 254 254 254 253 253 254 255 256 258 260 263 265 267 268 270 272 273 275 277 278 280 281 282 283 283 284 284 285 285 284 284 284 284 284 284 284 283 283 283 283 283 283 284 285 285 286 287 287 288 288 288 288 288 287 287 286 285 285 284 282
249 249 246 242 239 238 237 235 231 229 229 231 234 239 244 249 252 251 250 249 248 247 247 247 247 246 246 247 248 251 254 258 261 264 266 268 269 271 272 273 274 276 277 279 280 281 282 283 283 284 284 284 284 284 284 284 284 284 284 284 284 284 284 285 285 286 286 287 288 288 289 289 289 289 289 289 289 288 288 288 287 286 285 284 282
245 244 243 241 239 237 235 233 231 228 227 227 230 233 238 241 243 244 244 245 246 247 248 250 251 252 253 254 257 260 263 265 267 269 271 272 274 275 277 278 279 280 281 282 283 283 284 284 285 285 285 285 286 286 286 286 286 286 286 286 287 287 287 288 288 289 289 290 290 291 291 291 291 290 290 289 289 288 288 288 287 287 285 284 283
243 242 241 241 241 239 238 238 237 236 236 237 239 242 244 245 246 248 250 253 255 257 259 261 263 264 266 267 268 269 270 271 272 274 275 277 278 280 281 282 282 283 284 285 285 286 286 286 286 287 287 287 287 287 287 287 286 286 287 287 287 288 289 289 290 291 291 292 292 292 291 292 291 291 291 291 290 289 288 288 288 288 287 286 285
248 246 244 242 242 241 241 241 241 242 244 245 247 249 250 252 253 254 256 259 261 264 266 268 270 272 273 273 274 274 275 275 276 277 279 280 282 283 283 284 285 285 286 287 287 287 288 288 287 287 287 287 287 286 286 286 286 286 287 287 288 289 290 291 292 292 293 293 293 293 292 292 292 292 292 292 291 290 290 289 289 289 288 287 286
252 252 252 251 250 249 248 248 248 249 250 251 252 253 255 256 258 259 261 264 266 268 270 273 275 276 277 277 277 278 278 279 279 280 282 283 283 284 285 286 286 286 287 287 287 287 287 286 286 285 285 285 285 286 286 287 288 289 290 291 292 292 292 293 293 293 293 293 293 294 294 293 293 293 292 292 291 291 291 290 289 288 287 286 285
251 252 252 253 254 254 254 254 255 256 257 258 259 259 261 263 264 266 269 271 272 274 275 276 277 278 278 279 279 280 281 281 282 283 283 284 284 285 285 285 285 285 285 285 284 284 284 284 284 285 286 287 288 289 291 292 293 293 293 293 293 293 293 293 293 294 294 294 294 294 294 294 295 294 293 293 293 292 291 290 289 288 286 284 283
249 250 252 253 255 256 257 258 259 260 261 263 264 265 266 268 269 271 273 274 274 276 276 277 277 278 279 279 280 281 282 282 283 283 284 284 285 285 285 284 284 284 284 283 284 284 285 286 287 289 290 292 292 293 293 294 293 293 293 293 293 293 293 294 294 295 295 295 295 295 295 296 296 296 296 296 295 294 293 292 291 289 287 284 281
254 255 257 258 259 260 261 262 263 264 266 267 269 270 271 271 272 273 274 275 275 276 277 278 278 279 279 280 281 281 282 283 283 284 284 284 284 284 284 284 284 284 284 285 286 287 288 290 291 291 292 293 293 293 292 292 292 292 293 293 294 295 295 295 296 296 296 296 296 296 297 297 298 298 298 298 297 297 297 296 294 292 289 285 281
263 264 266 266 266 267 268 268 268 268 269 270 271 272 273 274 275 275 276 277 277 278 278 278 279 279 279 280 280 281 281 282 282 282 282 282 282 282 282 283 284 284 285 287 288 289 290 291 291 292 292 292 291 291 291 292 292 293 294 295 296 296 296 297 297 297 297 297 297 298 298 298 299 300 300 299 299 300 299 299 299 295 289 283 279
266 267 269 270 270 271 271 272 272 272 272 272 273 273 273 274 274 275 275 276 276 276 276 276 276 276 277 277 278 278 279 279 280 280 280 281 281 281 282 283 285 285 286 287 288 289 289 290 290 290 290 290 291 292 293 294 295 295 296 297 297 297 297 297 297 297 297 297 298 298 298 299 300 300 298 298 300 300 301 302 303 297 288 281 274
265 267 268 269 270 270 269 269 270 271 271 272 272 273 273 272 272 272 272 271 271 271 271 270 270 271 271 272 273 274 275 276 276 277 279 279 280 281 282 282 283 284 285 286 286 287 288 288 289 290 291 292 293 294 295 296 296 297 297 297 298 298 298 298 297 297 297 297 297 298 298 299 300 299 298 299 300 301 302 305 305 299 288 280 272
264 265 266 267 267 268 267 267 267 267 267 268 268 268 269 269 269 269 269 267 267 266 266 267 267 268 269 270 271 272 273 274 274 275 276 277 278 279 279 280 281 282 283 285 286 287 288 289 291 292 294 295 296 296 297 297 297 298 298 298 299 299 299 299 299 299 298 298 299 299 299 297 296 298 301 303 302 301 303 307 308 302 292 283 271
262 262 263 264 264 265 265 266 265 264 263 263 263 264 264 265 265 266 265 265 265 266 266 268 269 269 270 271 272 273 273 274 274 275 276 276 277 279 280 281 282 283 285 286 288 290 291 293 294 295 296 297 297 298 298 298 298 299 299 299 300 301 301 301 302 302 302 302 302 301 297 292 289 293 300 305 304 301 302 306 309 305 295 282 264
259 259 259 260 261 261 262 263 263 263 263 263 263 263 263 263 263 264 264 264 265 266 267 268 269 270 271 272 272 273 274 274 275 276 277 278 279 280 281 283 285 286 288 290 291 293 294 296 297 297 298 299 299 299 299 299 299 300 301 302 303 304 305 305 306 306 306 305 304 301 297 293 291 293 300 305 304 299 297 302 305 301 289 269 249
257 257 256 256 256 256 257 259 259 260 260 261 262 262 262 262 263 263 264 265 265 266 267 268 269 270 271 271 272 273 274 274 275 276 277 278 280 282 284 286 288 290 291 293 294 296 296 298 299 299 300 300 299 299 299 300 300 302 303 305 307 308 308 308 308 308 307 306 305 303 301 300 299 300 303 304 301 295 292 294 294 292 283 266 248
255 255 254 253 253 253 253 254 255 255 256 257 258 259 259 260 261 262 262 263 264 265 266 266 267 268 268 269 270 271 272 273 274 276 278 280 283 285 287 289 291 293 294 295 297 298 299 300 300 300 300 299 299 299 299 301 303 305 307 309 310 311 311 311 310 308 306 306 306 306 305 305 303 303 304 304 301 293 287 283 280 280 277 266 252
254 254 252 251 251 251 251 250 251 252 253 253 254 255 256 257 258 259 259 260 261 262 263 263 264 265 265 266 267 269 271 273 276 278 281 283 285 287 289 291 293 295 296 297 299 300 301 301 301 300 299 298 298 299 300 303 305 308 310 312 313 314 314 313 311 308 305 305 307 308 307 305 301 298 301 306 306 298 286 275 269 268 267 262 254
254 255 255 253 252 251 251 250 249 250 251 252 252 253 254 255 256 256 257 258 258 259 260 260 261 262 263 265 267 270 273 276 278 281 283 285 286 288 290 292 294 296 298 300 301 302 302 301 300 299 299 299 298 299 301 303 306 309 312 314 315 317 316 314 311 307 304 305 307 309 309 306 300 296 298 303 307 305 291 274 265 262 260 259 257
255 256 256 255 253 252 252 252 251 251 251 252 252 253 253 254 255 255 255 256 256 257 258 258 259 261 263 266 269 271 274 277 279 281 283 285 287 289 291 294 296 298 300 302 303 303 302 301 301 300 299 299 298 299 301 303 306 310 312 314 316 318 318 315 310 306 305 305 306 309 311 308 302 300 301 303 306 306 296 278 268 265 263 263 263
256 255 255 254 253 253 253 253 252 252 252 252 253 253 253 253 253 253 253 254 254 255 256 257 258 260 263 266 269 272 273 276 278 281 283 285 287 289 292 295 298 301 304 305 305 303 303 302 302 301 300 299 299 300 301 303 306 309 311 311 314 318 321 319 313 307 305 305 306 307 309 308 304 303 305 307 308 307 301 289 279 274 271 270 269
255 254 254 255 254 254 253 253 252 252 251 251 251 252 252 252 251 251 251 251 252 253 254 255 257 259 262 265 267 270 273 275 278 280 282 284 286 289 293 296 301 305 307 307 306 305 305 304 304 303 301 300 299 299 300 301 304 307 308 307 311 317 323 323 320 314 309 307 306 305 304 303 301 301 305 309 309 306 304 302 296 288 283 280 278
257 255 255 255 254 253 252 252 252 251 250 250 250 250 250 250 249 248 248 248 249 250 251 253 255 257 260 263 266 269 272 275 277 279 282 284 288 292 296 301 306 310 310 308 307 307 306 306 305 303 301 300 298 298 298 299 302 304 305 305 308 315 321 324 324 323 320 317 314 310 306 301 297 297 301 306 308 305 302 304 307 307 304 301 299
Height
5747 5749 5750 5751 5752 5753 5753 5753 5755 5756 5758 5760 5762 5764 5766 5767 5768 5769 5770 5772 5773 5774 5775 5776 5776 5777 5777 5778 5779 5779 5780 5781 5781 5782 5783 5784 5785 5786 5787 5788 5789 5789 5790 5791 5791 5791 5791 5791 5792 5792 5792 5792 5792 5792 5793 5794 5795 5795 5796 5796 5796 5797 5797 5798 5797 5797 5797 5797 5797 5797 5797 5797 5797 5797 5796 5796 5796 5796 5796 5796 5796 5795 5795 5794 5794
5744 5747 5748 5748 5749 5750 5751 5751 5753 5754 5755 5758 5760 5762 5763 5765 5766 5767 5768 5770 5771 5772 5773 5773 5774 5774 5774 5775 5776 5777 5778 5778 5779 5780 5781 5782 5783 5784 5785 5786 5787 5787 5788 5789 5789 5789 5790 5790 5790 5791 5791 5791 5790 5790 5791 5792 5793 5794 5794 5794 5794 5794 5795 5796 5796 5795 5795 5795 5795 5795 5795 5795 5795 5794 5794 5794 5794 5794 5794 5794 5793 5793 5792 5792 5791
5742 5744 5744 5745 5746 5747 5748 5749 5750 5752 5754 5755 5757 5759 5760 5762 5763 5764 5766 5768 5769 5769 5770 5770 5771 5772 5772 5773 5773 5774 5775 5776 5777 5778 5779 5780 5781 5782 5783 5784 5785 5785 5786 5787 5787 5787 5788 5788 5788 5788 5789 5789 5789 5789 5789 5790 5791 5791 5792 5792 5792 5792 5793 5794 5793 5792 5793 5793 5793 5793 5793 5793 5792 5792 5792 5792 5791 5791 5791 5791 5791 5790 5790 5789 5789
5741 5741 5741 5742 5743 5744 5745 5747 5748 5749 5751 5753 5755 5756 5758 5759 5761 5762 5764 5765 5766 5766 5767 5767 5768 5769 5770 5770 5771 5772 5773 5774 5775 5776 5777 5778 5779 5780 5781 5782 5783 5783 5784 5785 5786 5786 5786 5786 5786 5786 5786 5787 5787 5787 5787 5788 5788 5788 5789 5789 5789 5790 5791 5792 5791 5790 5790 5790 5790 5790 5790 5790 5790 5790 5789 5789 5789 5789 5789 5788 5788 5788 5787 5786 5786
5738 5738 5738 5739 5741 5741 5742 5744 5745 5747 5748 5750 5752 5753 5755 5756 5758 5760 5761 5763 5764 5764 5764 5765 5766 5766 5767 5768 5769 5770 5771 5772 5773 5774 5775 5776 5777 5778 5779 5780 5780 5781 5782 5783 5784 5784 5784 5784 5784 5785 5785 5785 5785 5785 5785 5786 5786 5786 5786 5787 5787 5787 5788 5788 5788 5788 5787 5787 5787 5788 5787 5787 5787 5787 5787 5787 5786 5786 5786 5786 5785 5785 5784 5784 5783
5734 5735 5735 5736 5738 5738 5739 5741 5742 5744 5746 5747 5749 5750 5751 5753 5755 5757 5758 5760 5760 5760 5761 5762 5763 5764 5765 5766 5767 5768 5769 5770 5771 5772 5773 5774 5775 5776 5777 5777 5778 5779 5779 5780 5781 5782 5782 5782 5782 5783 5783 5783 5783 5783 5784 5784 5784 5784 5784 5785 5784 5784 5785 5785 5785 5785 5785 5784 5784 5785 5784 5784 5784 5784 5784 5784 5784 5783 5783 5783 5783 5782 5782 5781 5780
5730 5730 5731 5733 5735 5736 5737 5738 5739 5741 5743 5744 5745 5747 5748 5750 5752 5753 5755 5756 5757 5757 5758 5759 5760 5761 5762 5763 5765 5766 5767 5768 5768 5769 5770 5771 5772 5773 5774 5775 5776 5776 5777 5777 5778 5779 5780 5780 5780 5780 5781 5781 5781 5781 5781 5782 5782 5782 5782 5782 5783 5782 5782 5782 5782 5783 5783 5782 5782 5782 5782 5781 5781 5781 5781 5781 5781 5780 5780 5780 5779 5779 5779 5779 5778
5725 5725 5727 5729 5733 5734 5735 5735 5736 5738 5739 5741 5742 5743 5745 5746 5748 5750 5752 5753 5754 5754 5755 5756 5757 5758 5760 5762 5763 5764 5764 5765 5766 5767 5768 5769 5770 5771 5772 5772 5773 5773 5774 5774 5775 5776 5778 5778 5777 5777 5778 5778 5779 5779 5779 5779 5780 5780 5779 5780 5781 5781 5780 5779 5779 5780 5780 5779 5779 5779 5778 5778 5778 5778 5778 5778 5777 5777 5777 5776 5776 5775 5775 5776 5775
5720 5721 5723 5726 5729 5731 5731 5732 5734 5735 5736 5737 5738 5740 5741 5743 5745 5747 5749 5750 5750 5751 5752 5753 5754 5756 5758 5760 5761 5761 5762 5763 5764 5765 5766 5767 5767 5768 5769 5770 5771 5771 5772 5772 5772 5774 5775 5775 5774 5775 5775 5775 5776 5776 5777 5777 5777 5777 5776 5777 5778 5778 5777 5777 5776 5776 5776 5776 5776 5776 5775 5775 5774 5774 5774 5774 5773 5773 5773 5773 5772 5771 5771 5771 5771
5715 5717 5719 5722 5725 5726 5727 5729 5731 5732 5733 5734 5735 5735 5737 5739 5742 5744 5745 5746 5748 5749 5749 5750 5752 5754 5757 5758 5758 5759 5760 5761 5762 5763 5764 5765 5766 5766 5767 5768 5768 5768 5769 5769 5769 5771 5772 5772 5772 5772 5772 5773 5773 5773 5774 5774 5775 5775 5774 5774 5775 5775 5774 5774 5773 5772 5772 5772 5772 5772 5772 5771 5771 5770 5770 5769 5769 5768 5768 5768 5767 5767 5766 5766 5766
5713 5714 5716 5718 5721 5723 5724 5726 5728 5729 5730 5731 5732 5732 5734 5736 5739 5740 5742 5743 5745 5746 5747 5749 5751 5753 5754 5754 5755 5757 5758 5759 5760 5761 5762 5763 5763 5764 5764 5765 5766 5766 5766 5766 5766 5767 5768 5768 5769 5769 5769 5770 5770 5771 5771 5772 5772 5772 5771 5771 5771 5771 5771 5770 5770 5769 5769 5768 5768 5768 5767 5767 5767 5766 5766 5765 5764 5763 5763 5763 5762 5762 5761 5761 5761
5710 5712 5713 5715 5718 5721 5722 5723 5724 5726 5727 5728 5729 5730 5732 5733 5735 5737 5739 5741 5742 5744 5746 5748 5749 5749 5750 5751 5753 5754 5755 5756 5757 5758 5759 5760 5760 5761 5762 5762 5763 5763 5763 5763 5763 5764 5765 5765 5765 5766 5767 5767 5768 5768 5769 5769 5769 5769 5768 5768 5767 5767 5767 5766 5766 5765 5765 5765 5764 5764 5763 5763 5762 5761 5761 5760 5760 5759 5758 5758 5757 5756 5756 5756 5756
5709 5710 5711 5713 5715 5718 5720 5721 5722 5723 5725 5726 5727 5729 5730 5732 5733 5735 5737 5738 5740 5742 5744 5745 5746 5747 5748 5749 5750 5751 5752 5753 5754 5755 5756 5756 5757 5758 5758 5759 5759 5760 5760 5760 5761 5761 5762 5762 5762 5763 5763 5764 5765 5766 5766 5766 5765 5765 5765 5765 5764 5763 5763 5762 5762 5761 5761 5761 5760 5760 5759 5758 5758 5757 5757 5756 5755 5755 5754 5754 5753 5751 5751 5750 5750
5707 5708 5709 5711 5713 5715 5717 5718 5719 5721 5722 5724 5726 5727 5729 5730 5731 5732 5734 5736 5738 5740 5741 5742 5743 5744 5745 5745 5746 5747 5748 5749 5750 5751 5752 5753 5754 5755 5755 5755 5756 5757 5757 5757 5758 5758 5759 5759 5759 5760 5760 5761 5762 5762 5762 5762 5762 5762 5761 5761 5760 5760 5759 5758 5758 5758 5757 5757 5756 5755 5755 5754 5754 5753 5753 5752 5751 5750 5749 5749 5748 5747 5746 5746 5745
5705 5706 5707 5709 5710 5712 5714 5715 5716 5718 5719 5721 5724 5725 5726 5727 5729 5730 5732 5733 5735 5736 5737 5739 5740 5741 5742 5742 5743 5744 5745 5746 5747 5748 5749 5749 5750 5751 5752 5752 5752 5753 5754 5754 5755 5755 5756 5756 5756 5757 5757 5758 5758 5758 5758 5758 5758 5758 5758 5757 5757 5756 5755 5755 5754 5754 5753 5752 5752 5751 5750 5749 5749 5748 5747 5747 5746 5745 5744 5743 5741 5741 5740 5740 5739
5702 5704 5705 5706 5708 5709 5711 5712 5714 5715 5717 5719 5721 5723 5724 5725 5726 5728 5729 5731 5731 5732 5734 5735 5736 5738 5738 5739 5739 5740 5741 5742 5743 5744 5745 5746 5746 5747 5748 5748 5749 5750 5751 5751 5751 5752 5753 5753 5754 5754 5754 5754 5754 5754 5754 5754 5754 5754 5753 5753 5752 5752 5751 5750 5750 5750 5749 5748 5747 5746 5745 5744 5743 5743 5742 5740 5739 5738 5737 5736 5735 5734 5734 5733 5732
5698 5700 5701 5703 5705 5707 5708 5709 5710 5712 5714 5716 5718 5720 5722 5722 5723 5725 5727 5727 5728 5729 5731 5732 5733 5734 5735 5735 5736 5737 5737 5738 5739 5740 5741 5742 5742 5743 5744 5745 5745 5746 5747 5747 5748 5749 5749 5749 5750 5750 5750 5751 5751 5750 5750 5750 5749 5749 5749 5748 5748 5747 5746 5745 5746 5745 5744 5743 5742 5741 5740 5739 5738 5737 5736 5734 5733 5732 5730 5730 5729 5728 5726 5726 5725
5697 5698 5698 5699 5701 5703 5705 5706 5707 5709 5711 5713 5715 5717 5719 5719 5720 5722 5723 5724 5725 5726 5727 5729 5729 5730 5731 5732 5732 5733 5734 5735 5735 5736 5737 5738 5739 5740 5741 5741 5742 5743 5743 5743 5744 5745 5745 5745 5746 5746 5746 5747 5746 5746 5745 5744 5744 5744 5744 5743 5743 5742 5741 5741 5741 5740 5739 5737 5737 5736 5735 5734 5733 5731 5730 5728 5727 5725 5723 5723 5722 5720 5718 5718 5719
5696 5697 5697 5697 5698 5701 5702 5704 5705 5707 5708 5710 5712 5714 5716 5716 5718 5719 5719 5720 5721 5722 5723 5725 5725 5726 5727 5728 5729 5730 5730 5731 5732 5733 5734 5734 5735 5736 5737 5738 5738 5738 5738 5739 5740 5741 5741 5741 5742 5742 5742 5742 5741 5740 5740 5739 5739 5739 5739 5738 5738 5737 5736 5735 5735 5734 5733 5732 5731 5731 5730 5728 5727 5726 5724 5722 5720 5718 5717 5717 5716 5713 5710 5710 5711
5693 5694 5695 5696 5697 5699 5700 5701 5703 5704 5705 5707 5709 5711 5712 5713 5714 5714 5715 5716 5718 5719 5719 5720 5721 5722 5724 5724 5725 5726 5727 5728 5729 5729 5730 5731 5732 5733 5733 5734 5734 5734 5734 5735 5736 5737 5737 5738 5738 5738 5737 5737 5736 5735 5734 5734 5734 5733 5733 5733 5732 5731 5731 5729 5728 5728 5727 5726 5725 5724 5724 5722 5721 5719 5717 5715 5714 5712 5711 5710 5709 5707 5705 5704 5704
5690 5690 5692 5693 5695 5696 5697 5699 5700 5701 5702 5703 5705 5706 5708 5709 5709 5710 5711 5712 5714 5715 5715 5716 5717 5719 5720 5721 5721 5722 5723 5724 5725 5725 5726 5728 5729 5729 5729 5730 5730 5730 5730 5730 5730 5732 5734 5734 5733 5733 5732 5731 5730 5730 5729 5729 5728 5728 5727 5727 5726 5725 5724 5723 5722 5721 5720 5720 5719 5717 5716 5715 5714 5712 5710 5708 5707 5705 5704 5702 5700 5699 5699 5698 5696
5688 5688 5689 5690 5692 5693 5694 5695 5696 5697 5698 5700 5701 5702 5704 5705 5705 5706 5707 5709 5710 5711 5712 5712 5713 5714 5716 5717 5718 5719 5720 5721 5721 5722 5723 5723 5724 5725 5725 5725 5725 5725 5725 5725 5725 5727 5730 5729 5727 5727 5727 5726 5725 5724 5723 5723 5722 5721 5720 5720 5719 5718 5718 5717 5716 5714 5713 5712 5711 5710 5709 5707 5705 5704 5702 5700 5698 5697 5695 5694 5692 5690 5689 5688 5687
5686 5687 5687 5688 5689 5690 5691 5692 5693 5694 5695 5696 5697 5698 5699 5700 5701 5702 5704 5705 5707 5708 5709 5709 5710 5711 5711 5713 5714 5715 5716 5717 5717 5718 5719 5719 5719 5720 5720 5720 5720 5720 5721 5721 5721 5722 5723 5723 5721 5721 5721 5720 5720 5719 5718 5717 5716 5715 5714 5713 5712 5711 5711 5710 5709 5708 5706 5705 5703 5702 5700 5698 5696 5694 5693 5691 5689 5688 5686 5685 5684 5681 5679 5678 5676
5684 5685 5686 5686 5686 5687 5688 5689 5690 5691 5692 5693 5694 5694 5695 5696 5697 5698 5700 5701 5703 5704 5705 5706 5707 5708 5708 5709 5710 5711 5711 5713 5713 5713 5714 5714 5714 5714 5715 5715 5715 5715 5716 5716 5716 5716 5716 5716 5716 5715 5715 5714 5713 5712 5711 5710 5710 5709 5707 5706 5705 5704 5703 5702 5701 5700 5699 5697 5695 5693 5691 5688 5686 5684 5682 5679 5679 5678 5676 5674 5673 5671 5669 5668 5666
5682 5682 5683 5683 5683 5684 5685 5686 5687 5688 5689 5690 5690 5691 5693 5693 5694 5695 5696 5697 5698 5700 5701 5702 5703 5704 5704 5705 5706 5706 5707 5708 5708 5707 5708 5709 5709 5709 5709 5709 5710 5710 5710 5710 5710 5710 5710 5710 5710 5709 5709 5708 5707 5706 5704 5703 5702 5702 5700 5699 5698 5697 5696 5695 5693 5692 5690 5689 5686 5684 5682 5679 5676 5673 5671 5668 5667 5666 5664 5663 5662 5660 5658 5657 5656
5678 5678 5679 5679 5680 5680 5681 5682 5683 5683 5684 5685 5686 5688 5689 5689 5690 5690 5692 5693 5693 5694 5696 5697 5698 5699 5700 5700 5701 5702 5703 5703 5702 5701 5703 5703 5703 5704 5704 5704 5704 5705 5705 5704 5704 5704 5703 5703 5703 5702 5702 5701 5700 5699 5698 5697 5696 5694 5693 5691 5690 5688 5687 5686 5685 5683 5681 5679 5677 5674 5671 5669 5666 5663 5660 5657 5655 5654 5652 5650 5650 5649 5648 5646 5645
5674 5674 5675 5676 5676 5677 5678 5678 5679 5680 5680 5681 5682 5683 5683 5684 5685 5686 5687 5688 5688 5689 5690 5691 5692 5694 5694 5695 5696 5698 5699 5698 5696 5697 5697 5698 5698 5698 5698 5698 5699 5699 5699 5699 5698 5697 5697 5696 5696 5695 5695 5694 5693 5692 5691 5690 5689 5687 5685 5683 5681 5680 5678 5677 5676 5674 5672 5670 5667 5663 5660 5657 5655 5653 5650 5646 5643 5641 5640 5639 5638 5637 5635 5635 5634
5670 5671 5672 5673 5673 5673 5674 5674 5675 5676 5676 5677 5678 5679 5679 5680 5681 5681 5682 5683 5684 5684 5685 5686 5687 5688 5689 5689 5691 5693 5693 5692 5692 5692 5692 5692 5692 5692 5692 5693 5693 5693 5692 5692 5692 5691 5691 5690 5689 5689 5688 5687 5686 5685 5684 5682 5681 5679 5677 5675 5673 5671 5669 5668 5666 5664 5662 5660 5656 5652 5650 5647 5644 5642 5639 5635 5632 5630 5628 5628 5628 5626 5624 5625 5624
5666 5667 5668 5669 5670 5670 5670 5670 5671 5671 5672 5673 5673 5674 5675 5676 5676 5677 5678 5678 5679 5680 5680 5681 5682 5683 5683 5683 5685 5686 5686 5686 5687 5686 5686 5686 5687 5687 5687 5687 5687 5687 5686 5686 5686 5686 5685 5684 5683 5681 5681 5680 5679 5677 5675 5674 5673 5671 5669 5667 5664 5662 5659 5657 5655 5653 5651 5649 5645 5641 5639 5637 5634 5631 5629 5625 5622 5619 5617 5617 5617 5616 5615 5614 5613
5664 5664 5664 5665 5666 5666 5667 5667 5667 5668 5668 5668 5669 5670 5671 5671 5672 5673 5673 5674 5675 5675 5676 5676 5677 5677 5677 5678 5679 5680 5680 5680 5681 5680 5680 5680 5680 5681 5681 5681 5681 5681 5680 5680 5680 5679 5678 5677 5676 5674 5673 5672 5671 5669 5667 5665 5664 5662 5659 5657 5655 5652 5648 5645 5643 5641 5639 5637 5634 5631 5628 5626 5624 5621 5619 5617 5614 5610 5607 5606 5606 5605 5605 5604 5602
5659 5660 5661 5662 5662 5663 5663 5663 5664 5664 5664 5665 5665 5666 5667 5667 5668 5668 5669 5669 5670 5670 5671 5671 5672 5672 5673 5673 5674 5674 5675 5675 5675 5674 5674 5674 5674 5675 5674 5674 5674 5674 5673 5673 5672 5671 5670 5669 5668 5666 5665 5664 5662 5660 5658 5656 5654 5651 5649 5646 5643 5640 5637 5634 5631 5630 5628 5626 5624 5621 5617 5615 5613 5612 5609 5608 5605 5602 5600 5597 5596 5595 5595 5594 5593
5653 5654 5656 5657 5658 5658 5658 5659 5659 5660 5660 5661 5661 5662 5662 5663 5663 5663 5664 5664 5665 5665 5665 5666 5666 5667 5667 5668 5668 5668 5669 5669 5669 5669 5668 5668 5668 5668 5667 5667 5667 5666 5665 5665 5664 5663 5662 5661 5659 5657 5656 5654 5653 5650 5648 5646 5644 5641 5639 5636 5633 5630 5627 5624 5621 5620 5618 5616 5614 5612 5609 5606 5604 5603 5601 5599 5596 5594 5592 5590 5587 5586 5585 5584 5584
5647 5648 5649 5650 5651 5652 5653 5653 5654 5654 5655 5655 5655 5656 5657 5657 5657 5658 5658 5658 5658 5659 5660 5660 5661 5661 5661 5662 5662 5662 5663 5663 5663 5662 5662 5662 5662 5661 5660 5660 5659 5659 5658 5657 5656 5655 5653 5652 5650 5648 5647 5645 5643 5641 5638 5636 5634 5631 5629 5627 5624 5621 5618 5615 5613 5611 5610 5608 5605 5603 5601 5599 5597 5595 5593 5591 5588 5585 5584 5582 5579 5577 5576 5574 5573
5641 5642 5643 5644 5645 5645 5646 5647 5648 5648 5648 5649 5650 5650 5651 5650 5651 5652 5653 5652 5652 5653 5654 5654 5654 5655 5655 5655 5656 5656 5656 5656 5656 5656 5656 5656 5655 5654 5654 5653 5652 5651 5650 5649 5648 5646 5645 5643 5641 5639 5637 5636 5634 5631 5628 5626 5623 5621 5619 5616 5614 5612 5609 5607 5605 5603 5602 5600 5598 5595 5593 5591 5589 5588 5586 5583 5580 5577 5575 5573 5571 5569 5567 5565 5564
5635 5637 5638 5638 5638 5639 5640 5641 5641 5642 5642 5643 5644 5644 5644 5644 5645 5646 5646 5646 5646 5647 5648 5648 5648 5648 5649 5649 5649 5649 5649 5649 5649 5649 5649 5649 5648 5647 5646 5645 5644 5643 5642 5641 5640 5638 5636 5634 5632 5630 5628 5626 5624 5621 5619 5616 5614 5612 5610 5608 5606 5604 5602 5599 5597 5595 5594 5593 5591 5589 5586 5584 5581 5580 5578 5575 5572 5569 5567 5565 5562 5560 5558 5556 5555
5630 5631 5632 5632 5633 5633 5634 5635 5635 5636 5637 5637 5638 5638 5639 5639 5640 5640 5641 5640 5641 5642 5642 5642 5642 5642 5642 5642 5642 5642 5642 5642 5642 5642 5642 5641 5640 5640 5639 5638 5637 5635 5634 5633 5631 5630 5628 5626 5623 5621 5619 5617 5615 5613 5611 5608 5606 5604 5602 5601 5599 5597 5595 5593 5591 5589 5587 5586 5584 5582 5580 5577 5574 5572 5570 5567 5564 5561 5559 5556 5553 5551 5549 5547 5546
5624 5625 5625 5626 5627 5628 5628 5629 5629 5630 5631 5631 5632 5633 5634 5634 5635 5635 5635 5635 5636 5637 5637 5636 5636 5637 5636 5635 5636 5636 5635 5635 5635 5634 5634 5634 5633 5632 5631 5630 5630 5628 5626 5625 5623 5622 5620 5617 5615 5613 5612 5610 5608 5606 5604 5602 5600 5598 5596 5594 5592 5591 5589 5587 5585 5583 5581 5579 5577 5575 5573 5570 5567 5565 5562 5560 5557 5554 5551 5548 5545 5542 5540 5538 5537
5618 5619 5619 5620 5621 5622 5622 5622 5623 5624 5625 5625 5626 5627 5628 5628 5629 5629 5630 5629 5630 5631 5631 5630 5629 5630 5630 5629 5629 5629 5629 5628 5628 5628 5627 5627 5627 5626 5624 5623 5623 5621 5619 5618 5616 5615 5613 5610 5608 5607 5605 5603 5602 5600 5598 5596 5594 5592 5590 5589 5587 5585 5583 5581 5578 5576 5574 5572 5570 5568 5566 5564 5561 5558 5556 5553 5551 5548 5545 5542 5539 5535 5532 5530 5530
5613 5613 5614 5615 5616 5616 5616 5616 5617 5618 5618 5619 5620 5621 5622 5622 5623 5624 5624 5624 5624 5625 5625 5624 5624 5623 5624 5624 5624 5624 5624 5623 5622 5621 5621 5621 5620 5619 5618 5616 5615 5614 5612 5611 5610 5608 5606 5604 5603 5601 5600 5598 5597 5595 5593 5591 5589 5587 5585 5583 5581 5579 5577 5575 5572 5570 5568 5566 5564 5561 5559 5557 5555 5553 5550 5548 5545 5543 5540 5537 5533 5529 5527 5525 5525
5607 5608 5609 5610 5610 5611 5611 5611 5612 5612 5613 5613 5614 5615 5616 5617 5618 5618 5619 5619 5619 5619 5620 5620 5619 5619 5619 5619 5619 5619 5619 5618 5617 5616 5616 5615 5614 5613 5612 5611 5609 5608 5607 5606 5604 5602 5601 5599 5598 5596 5595 5593 5591 5590 5588 5586 5584 5582 5580 5578 5575 5573 5571 5569 5566 5564 5562 5560 5557 5555 5553 5551 5549 5547 5545 5543 5541 5539 5536 5533 5529 5526 5523 5522 5522
5601 5602 5603 5603 5603 5604 5605 5606 5607 5607 5608 5608 5609 5610 5610 5611 5612 5613 5614 5614 5614 5614 5614 5614 5614 5614 5614 5614 5613 5613 5613 5613 5612 5612 5611 5610 5609 5608 5607 5606 5604 5603 5602 5600 5599 5597 5596 5595 5593 5592 5590 5588 5587 5585 5582 5580 5578 5576 5574 5572 5569 5567 5564 5562 5560 5558 5556 5554 5552 5549 5548 5546 5544 5543 5541 5539 5537 5535 5533 5530 5527 5523 5522 5521 5520
5595 5596 5597 5597 5597 5598 5598 5599 5600 5601 5601 5602 5603 5604 5604 5605 5606 5607 5607 5607 5607 5608 5608 5607 5607 5608 5608 5608 5607 5607 5607 5607 5607 5606 5605 5604 5604 5603 5601 5600 5599 5598 5597 5595 5594 5593 5592 5590 5589 5587 5585 5583 5581 5579 5577 5575 5573 5570 5568 5566 5564 5561 5559 5556 5554 5552 5550 5548 5546 5544 5543 5541 5540 5539 5537 5536 5534 5532 5530 5528 5525 5523 5521 5520 5520
5588 5589 5591 5591 5591 5591 5593 5594 5594 5594 5595 5595 5596 5597 5598 5599 5600 5601 5601 5601 5601 5601 5602 5602 5602 5602 5602 5602 5602 5602 5601 5601 5601 5600 5600 5599 5598 5597 5596 5595 5594 5593 5592 5591 5590 5588 5587 5585 5584 5582 5580 5578 5576 5573 5571 5569 5567 5565 5563 5561 5559 5556 5554 5551 5549 5547 5545 5543 5541 5540 5538 5537 5536 5535 5534 5532 5530 5529 5527 5526 5524 5523 5522 5521 5521
5581 5582 5584 5584 5585 5585 5587 5588 5588 5588 5589 5590 5591 5591 5592 5593 5594 5595 5595 5595 5596 5596 5596 5597 5597 5597 5597 5597 5596 5596 5596 5596 5595 5594 5594 5593 5592 5591 5591 5590 5589 5588 5587 5586 5585 5584 5582 5581 5579 5577 5574 5572 5570 5568 5566 5564 5562 5561 5559 5556 5554 5552 5549 5547 5545 5542 5540 5539 5537 5536 5535 5534 5533 5532 5531 5529 5527 5526 5525 5524 5523 5522 5522 5521 5521
5574 5575 5576 5577 5578 5579 5581 5582 5582 5582 5583 5584 5585 5586 5587 5587 5588 5589 5589 5590 5590 5591 5591 5591 5592 5592 5592 5591 5591 5591 5591 5590 5590 5589 5589 5588 5588 5587 5587 5586 5585 5584 5583 5582 5581 5579 5578 5576 5573 5571 5569 5567 5565 5563 5561 5560 5558 5556 5554 5552 5550 5547 5545 5542 5540 5539 5537 5536 5535 5534 5532 5531 5530 5529 5528 5526 5524 5524 5523 5523 5522 5522 5521 5521 5521
5569 5569 5569 5571 5572 5573 5575 5576 5576 5577 5578 5578 5579 5580 5581 5582 5583 5583 5584 5584 5585 5585 5586 5586 5586 5587 5587 5587 5586 5586 5586 5586 5585 5585 5585 5585 5584 5583 5583 5582 5582 5580 5579 5577 5576 5575 5572 5570 5568 5566 5564 5562 5560 5559 5557 5556 5554 5552 5550 5548 5546 5544 5541 5539 5537 5536 5535 5534 5533 5531 5530 5529 5527 5526 5525 5524 5522 5521 5521 5520 5520 5520 5520 5521 5521
5564 5564 5564 5566 5567 5568 5569 5570 5571 5571 5572 5573 5574 5575 5576 5576 5577 5578 5579 5579 5580 5580 5581 5581 5581 5582 5582 5582 5582 5582 5582 5582 5582 5582 5582 5581 5581 5580 5579 5579 5578 5577 5575 5573 5571 5570 5567 5565 5563 5561 5559 5558 5556 5555 5553 5552 5551 5549 5547 5545 5543 5541 5539 5537 5535 5534 5533 5532 5531 5529 5528 5527 5525 5524 5523 5522 5521 5519 5518 5518 5519 5519 5519 5519 5519
5561 5561 5560 5561 5562 5562 5563 5564 5565 5566 5567 5568 5569 5570 5571 5571 5572 5573 5574 5574 5575 5576 5576 5577 5577 5577 5578 5578 5578 5578 5579 5579 5579 5579 5578 5578 5577 5577 5576 5575 5574 5573 5571 5569 5567 5565 5563 5560 5559 5557 5555 5554 5552 5551 5550 5549 5547 5546 5544 5543 5541 5539 5537 5535 5533 5532 5531 5530 5529 5528 5526 5525 5523 5522 5521 5521 5520 5518 5517 5517 5517 5517 5517 5517 5517
5557 5557 5556 5556 5557 5558 5559 5560 5561 5562 5563 5563 5564 5565 5566 5567 5568 5569 5569 5570 5571 5572 5572 5573 5573 5574 5574 5574 5575 5575 5575 5576 5576 5575 5575 5575 5574 5573 5572 5571 5570 5569 5566 5564 5562 5560 5558 5557 5555 5553 5552 5550 5549 5548 5547 5546 5545 5543 5542 5540 5539 5537 5535 5533 5532 5530 5529 5528 5527 5526 5524 5523 5522 5520 5519 5519 5518 5517 5516 5516 5515 5516 5516 5516 5515
5553 5552 5552 5553 5554 5554 5555 5556 5557 5558 5559 5560 5561 5561 5562 5563 5564 5565 5566 5566 5567 5568 5569 5569 5570 5570 5571 5571 5572 5572 5572 5572 5572 5572 5572 5572 5571 5570 5569 5568 5566 5564 5562 5560 5558 5556 5555 5553 5551 5550 5548 5547 5546 5545 5544 5543 5542 5541 5540 5539 5537 5536 5534 5532 5530 5529 5527 5526 5525 5524 5522 5521 5520 5519 5518 5517 5517 5516 5515 5515 5514 5514 5514 5514 5514
5548 5549 5549 5550 5550 5551 5551 5552 5553 5554 5555 5556 5557 5558 5558 5559 5560 5561 5562 5563 5564 5565 5566 5566 5567 5567 5568 5568 5569 5569 5569 5569 5569 5569 5569 5568 5567 5566 5565 5564 5562 5560 5558 5556 5554 5553 5551 5549 5548 5547 5545 5544 5543 5542 5542 5541 5540 5539 5538 5537 5535 5534 5532 5530 5529 5527 5525 5524 5523 5521 5520 5519 5518 5517 5516 5516 5515 5515 5514 5514 5514 5513 5513 5512 5512